CW3847 La Orotava ES current weather conditions

sailwx.info

Wind from 328 at 1 knots gusting 2

Air temperature 21.1° C
Dewpoint 17.5° C

Last reported at 2015-Sep-02 19:47 UTC.
Time now 2015-Sep-02 21:49 UTC

Location: N 28°23' W 016°31'.
View on Google Maps.

See reports from other nearby stations

  
Tides and Currents Weather Stations Pressure Air Temp Water Temp Dewpoint Dewpoint Depression Visibility Wind Speed Wind Dir Waves Ship Positions
date/time (UTC)wind fromknots sea level pressurealtimeterstation pressurevisibilityair tempwater tempwave heightnotes
2015-Sep-02 19:47 328 1 gusting 2 21.1
2015-Sep-02 19:37 327 2 gusting 2 21.1
2015-Sep-02 19:27 310 0 gusting 2 21.1
2015-Sep-02 19:17 338 2 gusting 6 21.7
2015-Sep-02 18:57 042 21.7
2015-Sep-02 18:47 321 2 gusting 4 21.7
2015-Sep-02 18:37 015 3 gusting 5 22.2
2015-Sep-02 18:17 019 2 gusting 3 22.2
2015-Sep-02 17:57 344 4 gusting 6 22.2
2015-Sep-02 17:37 346 3 gusting 3 22.2
2015-Sep-02 16:57 331 6 gusting 6 22.2
2015-Sep-02 16:37 343 2 gusting 3 22.8
2015-Sep-02 16:07 355 4 gusting 6 22.8
2015-Sep-02 15:57 355 3 gusting 6 22.8
2015-Sep-02 15:47 305 3 gusting 6 22.8
2015-Sep-02 15:17 344 4 gusting 7 22.8
2015-Sep-02 14:47 025 2 gusting 8 23.3
2015-Sep-02 14:27 019 3 gusting 3 22.8
2015-Sep-02 14:17 348 4 gusting 6 23.3
2015-Sep-02 13:57 360 4 gusting 8 23.3
2015-Sep-02 13:37 348 3 gusting 6 23.3
2015-Sep-02 12:57 014 5 gusting 6 23.3
2015-Sep-02 12:47 046 2 gusting 6 23.3
2015-Sep-02 12:37 010 5 gusting 8 23.3
2015-Sep-02 12:27 344 4 gusting 7 23.3
2015-Sep-02 10:47 017 2 gusting 6 22.8
2015-Sep-02 10:37 049 2 gusting 6 22.8
2015-Sep-02 09:47 348 6 gusting 7 22.2
2015-Sep-02 09:37 034 1 gusting 5 22.8
2015-Sep-02 09:17 342 4 gusting 4 22.2
2015-Sep-02 08:57 015 1 gusting 3 22.8
2015-Sep-02 08:47 056 22.2
2015-Sep-02 08:27 236 0 gusting 1 22.2
2015-Sep-02 08:17 237 1 gusting 2 21.7
2015-Sep-02 07:57 180 20.6
2015-Sep-02 07:47 180 1 gusting 1 20.0
2015-Sep-02 06:57 192 1 gusting 2 19.4
2015-Sep-02 06:37 176 19.4
2015-Sep-02 05:57 163 0 gusting 2 19.4
2015-Sep-02 04:57 175 1 gusting 3 19.4
2015-Sep-02 04:47 180 2 gusting 2 20.0
2015-Sep-02 04:17 172 0 gusting 1 20.0
2015-Sep-02 04:07 178 2 gusting 2 20.0
2015-Sep-02 03:37 177 1 gusting 2 20.0
2015-Sep-02 03:07 185 20.6
2015-Sep-02 02:57 173 0 gusting 0 20.6
2015-Sep-02 02:47 173 0 gusting 1 20.6
2015-Sep-02 02:27 173 20.6
2015-Sep-02 02:17 173 0 gusting 1 20.6
2015-Sep-02 02:07 173 20.6
2015-Sep-02 01:57 173 20.6
2015-Sep-02 01:17 180 0 gusting 2 20.0
2015-Sep-02 01:07 173 0 gusting 0 20.0
2015-Sep-02 00:57 180 1 gusting 2 20.0
2015-Sep-02 00:37 182 2 gusting 4 20.0
2015-Sep-02 00:27 173 1 gusting 2 20.0
2015-Sep-02 00:17 171 2 gusting 4 20.0
2015-Sep-01 23:47 175 2 gusting 4 20.6
2015-Sep-01 23:37 195 3 gusting 3 20.6
2015-Sep-01 23:27 192 20.6
2015-Sep-01 22:57 192 2 gusting 2 21.1
2015-Sep-01 22:37 177 0 gusting 2 21.1
2015-Sep-01 22:07 175 2 gusting 2 21.1
2015-Sep-01 21:57 199 0 gusting 2 21.1
2015-Sep-01 21:47 246 21.7
2015-Sep-01 21:27 246 1 gusting 1 21.7
2015-Sep-01 20:57 219 1 gusting 2 21.7
2015-Sep-01 20:27 306 21.7
2015-Sep-01 20:07 313 0 gusting 1 21.7
2015-Sep-01 19:17 317 2 gusting 2 22.2
2015-Sep-01 19:07 313 2 gusting 3 22.2
2015-Sep-01 18:57 360 2 gusting 3 22.2
2015-Sep-01 18:37 355 2 gusting 6 22.2
2015-Sep-01 18:17 020 1 gusting 3 22.8
2015-Sep-01 18:07 348 2 gusting 4 22.8
2015-Sep-01 17:57 360 2 gusting 4 22.8
2015-Sep-01 17:17 355 4 gusting 4 23.3
2015-Sep-01 16:57 011 3 gusting 4 22.8
2015-Sep-01 16:47 005 3 gusting 6 22.8
2015-Sep-01 16:37 331 2 gusting 4 22.8
2015-Sep-01 16:27 011 2 gusting 2 22.8
2015-Sep-01 16:17 330 3 gusting 4 22.8
2015-Sep-01 15:57 321 6 gusting 6 22.8
2015-Sep-01 15:47 010 2 gusting 6 22.8
2015-Sep-01 15:27 360 2 gusting 4 22.8
2015-Sep-01 15:17 355 4 gusting 6 23.3
2015-Sep-01 14:27 355 6 gusting 6 23.9
2015-Sep-01 14:17 351 6 gusting 6 24.4
2015-Sep-01 14:07 336 6 gusting 6 24.4
2015-Sep-01 13:57 025 1 gusting 6 24.4
2015-Sep-01 13:47 360 2 gusting 6 24.4
2015-Sep-01 13:27 020 5 gusting 6 24.4
2015-Sep-01 13:17 329 4 gusting 6 24.4
2015-Sep-01 12:57 046 1 gusting 6 24.4
2015-Sep-01 12:37 044 2 gusting 6 24.4
2015-Sep-01 12:07 360 4 gusting 6 24.4
2015-Sep-01 11:57 349 2 gusting 6 24.4
2015-Sep-01 11:47 025 0 gusting 4 23.9
2015-Sep-01 11:37 347 2 gusting 4 24.4
2015-Sep-01 11:27 360 2 gusting 6 23.9
2015-Sep-01 11:17 323 6 gusting 6 23.9
2015-Sep-01 10:57 035 2 gusting 6 23.9
2015-Sep-01 10:47 336 2 gusting 6 23.9
2015-Sep-01 10:17 016 0 gusting 4 23.9
2015-Sep-01 09:37 339 2 gusting 7 23.9
2015-Sep-01 09:17 355 2 gusting 3 23.9
2015-Sep-01 09:07 318 1 gusting 2 23.9
2015-Sep-01 08:57 327 2 gusting 2 24.4
2015-Sep-01 08:47 191 0 gusting 0 24.4
2015-Sep-01 08:07 173 21.7
2015-Sep-01 07:57 173 0 gusting 2 20.6
2015-Sep-01 07:47 169 2 gusting 2 20.0
2015-Sep-01 07:37 166 3 gusting 4 20.0
2015-Sep-01 07:27 184 2 gusting 4 20.0
2015-Sep-01 07:17 150 4 gusting 4 20.0
2015-Sep-01 07:07 166 3 gusting 5 19.4
2015-Sep-01 06:57 176 1 gusting 3 20.0
2015-Sep-01 06:47 169 2 gusting 4 20.0
2015-Sep-01 06:37 172 0 gusting 2 20.0
2015-Sep-01 06:27 172 1 gusting 4 20.0
2015-Sep-01 06:17 153 2 gusting 5 20.0
2015-Sep-01 05:57 186 2 gusting 3 20.0
2015-Sep-01 05:37 181 3 gusting 4 20.0
2015-Sep-01 05:27 159 4 gusting 5 20.0
2015-Sep-01 05:17 174 2 gusting 5 20.0
2015-Sep-01 04:57 178 3 gusting 5 20.0
2015-Sep-01 04:47 178 3 gusting 4 20.0
2015-Sep-01 04:07 161 3 gusting 5 19.4
2015-Sep-01 03:17 174 2 gusting 2 19.4
2015-Sep-01 03:07 167 2 gusting 6 20.0
2015-Sep-01 02:57 166 4 gusting 4 20.0
2015-Sep-01 02:27 180 2 gusting 4 20.0
2015-Sep-01 02:17 170 0 gusting 3 20.6
2015-Sep-01 02:07 182 1 gusting 2 20.0
2015-Sep-01 01:57 157 4 gusting 6 20.0
2015-Sep-01 01:47 169 3 gusting 4 20.0
2015-Sep-01 01:37 177 4 gusting 4 20.0
2015-Sep-01 01:27 171 2 gusting 4 20.6
2015-Sep-01 01:17 173 2 gusting 3 20.6
2015-Sep-01 00:57 181 2 gusting 2 20.6
2015-Sep-01 00:47 172 1 gusting 2 20.6
2015-Sep-01 00:37 173 0 gusting 2 20.6
2015-Sep-01 00:27 170 2 gusting 2 20.6
2015-Sep-01 00:07 174 3 gusting 3 20.6
2015-Aug-31 23:47 176 3 gusting 4 20.6
2015-Aug-31 23:37 170 1 gusting 2 21.1
2015-Aug-31 23:17 187 2 gusting 2 21.1
2015-Aug-31 22:47 299 0 gusting 1 21.7
2015-Aug-31 22:37 299 0 gusting 2 21.7
2015-Aug-31 22:27 207 0 gusting 1 21.7
2015-Aug-31 22:17 237 21.7
2015-Aug-31 21:37 328 21.7
2015-Aug-31 21:27 328 0 gusting 1 21.7
2015-Aug-31 21:17 329 2 gusting 2 21.7